This demonstration page uses our WeatherBlox Daily Observations layout. Learn more.

Left ArrowRight Arrow

41.55636, -103.73856

Hourly Observations for December 12, 2021

Temp ( °F °C ) Dew Point ( °F °C ) Humidity (%) Winds ( mph kmh ) Pressure ( in mb ) Visibility ( mi km ) Precip ( " mm )
12:58 am 00:58 Clear 36 2.4 13 -10.5 38 38 WSW 13 20 29.89 1012 10 16 0.00 0.00
1:58 am 01:58 Clear 37 3 15 -9.6 39 39 SW 14 22 29.87 1012 10 16 0.00 0.00
2:58 am 02:58 Clear 33 0.3 15 -9.4 49 49 SW 16 26 29.89 1012 10 16 0.00 0.00
3:58 am 03:58 Mostly Cloudy 30 -1 13 -10.6 49 49 SSW 9 15 29.91 1013 10 16 0.00 0.00
4:58 am 04:58 Mostly Cloudy 36 2 12 -11 38 38 SSW 15 24 29.86 1011 10 16 0.00 0.00
5:58 am 05:58 Partly Cloudy 35 1.9 13 -10.4 40 40 S 9 15 29.88 1012 10 16 0.00 0.00
6:58 am 06:58 Mostly Cloudy 36 2.4 14 -9.9 40 40 SSW 8 13 29.88 1012 10 16 0.00 0.00
7:58 am 07:58 Mostly Cloudy 40 4.4 14 -10.1 34 34 SW 6 9 29.87 1012 10 16 0.00 0.00
8:58 am 08:58 Sunny 43 6.3 9 -12.7 24 24 SW 10 17 29.86 1011 10 16 0.00 0.00
9:58 am 09:58 Sunny 42 5.6 14 -9.9 32 32 WNW 6 9 29.88 1012 10 16 0.00 0.00
10:58 am 10:58 Sunny 46 7.5 19 -7.4 34 34 Calm 29.86 1011 10 16 0.00 0.00
11:58 am 11:58 Sunny 47 8.2 20 -6.6 35 35 NW 3 6 29.83 1010 10 16 0.00 0.00
12:58 pm 12:58 Sunny 56 13.5 14 -10.1 19 19 W 5 7 29.80 1009 10 16 0.00 0.00
1:58 pm 13:58 Sunny 51 10.8 20 -6.6 29 29 NNW 17 28 29.83 1010 10 16 0.00 0.00
2:58 pm 14:58 Sunny 49 9.3 17 -8.2 28 28 WNW 18 30 29.87 1012 10 16 0.00 0.00
3:58 pm 15:58 Sunny 46 8 19 -7.4 33 33 WNW 8 13 29.89 1012 10 16 0.00 0.00
4:58 pm 16:58 Clear 38 3.5 20 -6.9 47 47 SW 12 19 29.92 1013 10 16 0.00 0.00
5:58 pm 17:58 Clear 35 1.5 19 -7.4 52 52 W 6 9 29.96 1014 10 16 0.00 0.00
6:58 pm 18:58 Clear 42 5.6 16 -8.9 35 35 Calm 29.94 1014 10 16 0.00 0.00
7:58 pm 19:58 Clear 35 1.6 17 -8.3 48 48 WSW 6 9 29.98 1015 10 16 0.00 0.00
8:58 pm 20:58 Clear 33 0.6 18 -7.8 54 54 SW 7 11 29.97 1015 10 16 0.00 0.00
9:58 pm 21:58 Clear 36 2 17 -8.3 47 47 Calm 29.99 1016 10 16 0.00 0.00
10:58 pm 22:58 Clear 34 1.2 17 -8.2 50 50 SW 6 9 30.03 1017 10 16 0.00 0.00
11:58 pm 23:58 Clear 31 -0.5 16 -8.8 54 54 SSW 7 11 30.03 1017 10 16 0.00 0.00

Powered by AerisWeather